AirNav   Pilot Hours Calculator
 
 1127 users online  

UT24 Strawberry Valley Estates Airport
Alton, Utah, USA

GOING TO ALTON?


FAA INFORMATION EFFECTIVE 07 NOVEMBER 2019

Location

FAA Identifier: UT24
Lat/Long: 37-29-35.9290N 112-38-43.7670W
37-29.598817N 112-38.729450W
37.4933136,-112.6454908
(estimated)
Elevation: 8141 ft. / 2481.4 m (surveyed)
Variation: 14E (1985)
From city: 9 miles NW of ALTON, UT
Time zone: UTC -7 (UTC -6 during Daylight Saving Time)
Zip code: 84762

Airport Operations

Airport use: Private use. Permission required prior to landing
Control tower: no
ARTCC: SALT LAKE CITY CENTER
FSS: CEDAR CITY FLIGHT SERVICE STATION
Attendance: MAY-OCT DAYLIGHT HOURS
Wind indicator: yes
Segmented circle: no

Airport Communications

UNICOM: 122.8

Nearby radio navigation aids

VOR radial/distance  VOR name  Freq  Var
BCEr219/20.0BRYCE CANYON VORTAC112.8015E
EHKr115/26.7ENOCH VOR/DME117.3016E

 
NDB name  Hdg/Dist  Freq  Var  ID
COLORADO CITY016/36.440313EAZC .- --.. -.-.

Airport Services

Airframe service: NONE
Powerplant service: NONE

Runway Information

Runway 3/21

Dimensions: 4200 x 50 ft. / 1280 x 15 m
Surface: turf
GRASS
RUNWAY 3  RUNWAY 21
Traffic pattern: leftleft

Airport Ownership and Management from official FAA records

Ownership: Privately-owned
Owner: STRAWBERRY VALLEY AIRPORT, LLC
HC 82, BOX 1169
DUCK CREEK VILLAGE, UT 84762
Phone 435-682-2569
Manager: GARY HACKBART
HC 82 BOX 1169
DUCK CREEK VILLAGE, UT 84762
Phone 435-682-2569

Additional Remarks

FOR CD CTC SALT LAKE ARTCC AT 801-320-2568.

Instrument Procedures

There are no published instrument procedures at UT24.

Some nearby airports with instrument procedures:

U55 - Panguitch Municipal Airport (24 nm NE)
KCDC - Cedar City Regional Airport (25 nm NW)
KBCE - Bryce Canyon Airport (27 nm NE)
KKNB - Kanab Municipal Airport (29 nm S)
KAZC - Colorado City Municipal Airport (37 nm SW)
 
Loc | Ops | Rwys | IFR | FBO | Links
Com | Nav | Svcs | Stats | Notes
Area around UT24 (Strawberry Valley Estates Airport)
 
Road maps at: MapQuest Bing Google
 
Aerial photo
WARNING: Photo may not be current or correct
Aerial photo of UT24 (Strawberry Valley Estates Airport)
Photo taken 15-Jun-2019
looking south.

Do you have a better or more recent aerial photo of Strawberry Valley Estates Airport that you would like to share? If so, please send us your photo.

 
Sectional chart

 
Airport distance calculator
Flying to Strawberry Valley Estates Airport? Find the distance to fly.

From to UT24

Sunrise and sunset
Times for 12-Nov-2019
 Local
(UTC-7)
 Zulu
(UTC)
Morning civil twilight06:4013:40
Sunrise07:0814:08
Sunset17:2100:21
Evening civil twilight17:4900:49

Current date and time
Zulu (UTC)  12-Nov-2019 22:35:12
Local (UTC-7)  12-Nov-2019 15:35:12
 
METAR
KCDC 
25nm NW 
122153Z AUTO VRB03KT 10SM CLR 16/M07 A3019 RMK AO2 SLP200 T01611072
KBCE 
27nm NE 
122153Z AUTO 13010KT 10SM CLR 11/M08 A3028 RMK AO2 SLP210 T01111083
KKNB 
29nm S 
122215Z AUTO 00000KT 10SM CLR 18/M11 A3023 RMK A01
KAZC 
37nm SW 
122215Z AUTO 15003KT 10SM CLR 20/M09 A3021 RMK AO2
TAF
KCDC 
25nm NW 
121731Z 1218/1318 VRB04KT P6SM SKC FM122100 24006KT P6SM FEW200 FM130200 18005KT P6SM SKC
KBCE 
27nm NE 
121731Z 1218/1318 16007KT P6SM FEW200 FM130100 27006KT P6SM FEW200
NOTAMs
Click for the latest NOTAMs
NOTAMs are issued by the DoD/FAA and will open in a separate window not controlled by AirNav.

 

 
 

Would you like to see your business listed on this page?

 If your business provides an interesting product or service to pilots, flight crews, aircraft, or users of the Strawberry Valley Estates Airport, you should consider listing it here.  To start the listing process, click on the button below
 
Add a business
 

Other Pages about Strawberry Valley Estates Airport

Update a link
 
Copyright © AirNav, LLC. All rights reserved. Privacy Policy  Contact